User: anonymous   Login
Location: Treviso
(45.6669°N, 12.2430°E)
Time: 22:42:13
(UTC+02:00)
Language:

CUBESAT XI-V - Orbit

View from above orbital plane
View from above orbital plane
View from above satellite
View from above satellite

Ground track
Ground track

The orbit data is extracted from the following two-line orbital elements,

1 28895U 05043F   19113.17743029  .00000126  00000-0  33003-4 0  9994
2 28895  97.9500 257.8743 0017248 165.6690 194.5005 14.63651412719212
Epoch (UTC): 23 April 2019 04:15:29
Eccentricity: 0.0017248
inclination: 97.9500°
perigee height: 669 km
apogee height: 693 km
right ascension of ascending node: 257.8743°
argument of perigee: 165.6690°
revolutions per day: 14.63651412
mean anomaly at epoch: 194.5005°
orbit number at epoch: 71921

The dashed part of the orbit path shows where the satellite is in the earth's shadow,  

DLR